Location: Unspecified
(6.2467°S, 0.0000°E)
Time: 14:09:25
(UTC+00:00)

Daily predictions for brighter satellites

Satellite Brightness Start Highest point End
(mag) Time Altitude Azimuth Time Altitude Azimuth Time Altitude Azimuth
Cosmos 1486 Rocket 4.1 18:13:01 10° SSW 18:18:19 89° ESE 18:23:32 10° NNE
ATLAS 3B R/B 2.8 18:11:35 10° SSW 18:18:21 77° ESE 18:25:40 10° NNE
Cosmos 2278 4.4 18:14:40 10° SSE 18:19:36 31° ESE 18:24:30 10° NE
Cosmos 1500 Rocket 4.4 18:17:52 10° SSE 18:21:31 27° E 18:25:08 10° NE
Resurs 1-3 4.3 18:21:29 10° SE 18:25:20 32° E 18:29:08 10° NNE
Cosmos 1758 3.8 18:24:54 10° SSE 18:28:13 31° E 18:31:32 10° NNE
IRS-1C 4.1 18:28:08 10° SSE 18:33:28 77° ENE 18:38:45 10° N
ARIANE 5 DEB (SYLDA) 4.3 18:28:28 10° WNW 18:33:40 52° NNE 18:50:26 12° E
COSMO-SKYMED 1 4.3 18:29:57 10° NNW 18:33:40 35° W 18:37:27 10° SW
Milstar 3 4.0 18:30:11 10° SSW 18:35:52 27° SSE 18:42:20 12° E
Cosmos 1805 Rocket 3.7 18:33:19 10° S 18:37:29 49° E 18:41:39 10° NNE
Cosmos 2360 Rocket 3.1 18:32:53 10° SSE 18:37:30 26° ESE 18:42:05 10° NE
ARIANE 5 DEB (SYLDA) 2.7 18:36:56 10° NW 18:38:49 27° N 18:40:23 14° ENE
Cosmos 1703 2.7 18:36:27 10° N 18:39:37 59° E 18:42:48 10° SSE
Cosmos 2322 Rocket 2.9 18:35:22 10° S 18:40:22 32° ESE 18:45:18 10° NE
SL-16 R/B 2.1 18:37:47 10° SSW 18:43:27 79° ESE 18:49:05 10° NNE
ASC 2 Rocket 4.0 18:40:30 10° W 18:45:12 43° NNW 18:49:05 10° NE
Cosmos 2227 Rocket 3.6 18:42:36 10° NE 18:45:50 16° ENE 18:46:51 15° E
YAOGAN 1 2.5 18:44:43 10° SSE 18:48:55 59° ENE 18:53:04 10° N
USA 81 4.0 18:44:07 10° S 18:49:23 87° E 18:54:38 10° N
ARIANE 5 R/B 3.2 18:46:58 10° S 18:51:51 57° WSW 18:56:43 10° NNW
Palapa B4 Rocket 3.5 18:49:32 10° SW 18:53:01 35° SSE 18:54:55 21° ESE
Cosmos 990 Rocket 3.9 18:48:15 10° S 18:53:28 78° ESE 18:58:38 10° NNE
CARTOSAT-1 3.7 18:53:34 10° SSE 18:57:37 47° E 19:01:38 10° N
IRS-P3 4.4 18:59:33 10° S 19:04:53 73° WSW 19:10:10 10° NNW
COBE Rocket 4.4 19:03:48 10° N 19:08:46 64° W 19:13:52 10° SSW
Nadezhda 1 Rocket 4.0 19:05:46 10° NNE 19:11:35 50° E 19:17:26 10° SSE
Spot 4 Rocket 4.0 19:06:43 10° SSE 19:11:44 57° ENE 19:16:42 10° N
GPS 2-12 Rocket1 3.3 19:08:05 10° NW 19:12:30 53° NNE 19:13:52 37° ENE
SJ-7 4.0 19:10:41 18° SSE 19:13:16 61° E 19:16:54 10° N
Cosmos 1461 3.6 19:10:16 10° NW 19:13:28 41° WSW 19:16:41 10° S
H-2A R/B 4.2 19:09:39 10° NNW 19:13:33 14° N 19:15:18 12° NNE
Radarsat Rocket 4.4 19:07:58 10° SSE 19:14:44 67° ENE 19:22:23 10° N
Cosmos 2333 Rocket 2.8 19:09:24 10° SSW 19:15:04 60° WNW 19:20:39 10° N
Cosmos 2219 Rocket 2.6 19:13:39 10° S 19:18:49 38° ESE 19:19:33 36° E
DELTA 2 R/B (1) 3.5 19:14:57 10° NW 19:20:30 71° NE 19:22:34 39° ESE
Cosmos 2297 Rocket 2.8 19:18:36 10° NNW 19:24:07 57° WSW 19:29:39 10° S
SL-23 DEB 4.3 19:18:16 10° NW 19:24:16 73° SW 19:25:53 36° SSE
Aureole 1 Rocket 3.5 19:23:45 10° SSW 19:29:43 86° WNW 19:34:25 10° N
ISS -2.5 19:26:31 10° NNW 19:28:33 33° NNW 19:28:33 33° NNW
Helios 1A Rocket 3.5 19:28:18 10° N 19:31:20 41° WNW 19:34:24 10° SSW
Cosmos 2074 Rocket 3.9 19:33:53 10° S 19:39:58 56° E 19:46:00 10° NNE
Resurs 01 Rocket 2.1 19:36:48 10° S 19:41:10 60° WSW 19:45:28 10° NNW
deb Centaur AC-2 4.4 19:41:20 10° WSW 19:45:50 60° NW 19:45:50 60° NW
Centaur D-1AR AC-40 3.8 19:39:46 10° WSW 19:48:01 24° S 19:49:08 22° S
Meteor 1-22 Rocket 4.1 19:43:11 10° S 19:48:28 75° W 19:53:48 10° N
ARIANE 6 FM1 Upper Stage 4.3 19:45:23 10° SW 19:49:22 34° WNW 19:51:24 22° NNW
Lacrosse 5 rocket 3.7 19:48:33 10° SW 19:48:54 12° SW 19:48:54 12° SW
Cosmos 1898 Rocket 3.9 19:48:28 10° SSW 19:52:29 53° SSW 19:52:29 53° SSW
SL-19 R/B 4.4 19:57:14 45° SSW 19:58:49 67° WSW 20:03:59 10° NNW
Cosmos 2263 Rocket 4.1 20:04:12 10° N 20:05:31 18° N 20:05:31 18° N
Chandra Rocket (1) 4.4 19:37:52 10° WSW 20:15:28 71° SSE 20:17:28 62° ESE
ATLAS 2AS CENTAUR RB 3.3 20:10:01 10° WNW 20:15:41 35° NW 20:15:41 35° NW
Cosmos 2360 Rocket 4.4 20:17:00 10° SW 20:21:09 21° WNW 20:25:17 10° NNW
Ariane 3 Deb 4.4 20:20:11 10° W 20:25:40 90° SSW 20:26:19 80° E
Milstar 3 Cent rocket 3.0 20:20:13 10° WNW 20:24:24 59° W 20:24:24 59° W
Cosmos 2227 Rocket 3.6 20:24:23 10° NW 20:28:46 34° W 20:28:46 34° W
Maqsat-H 4.1 20:25:57 10° NW 21:11:46 - E 20:29:41 35° N
Intelsat 5-1 Rocket 4.1 20:25:28 10° WNW 20:31:00 36° WNW 20:31:00 36° WNW
Ariane H10+ 4.4 20:39:28 10° WNW 20:53:03 46° N 20:53:03 46° N
Milstar 3 4.4 21:11:52 10° WSW 21:15:56 38° WSW 21:15:56 38° WSW
